Location: Avully
(45.9633°N, 6.0228°E)
Time: 21:17:59
(UTC+00:00)

Cosmos 2360 Rocket - Pass Details

Date: 12 August 2024
Orbit: 834 x 843 km, 71.0° (Epoch: 10 September)

Event Time Altitude Azimuth Distance (km) Brightness Sun altitude
Exits shadow 02:21:29 - 284° (WNW) 2,660 4.5 -19.2°
Reaches altitude 10° 02:22:28 10° 292° (WNW) 2,466 4.4 -19.1°
Maximum altitude 02:25:16 14° 322° (NW) 2,209 4.5 -18.8°
Drops below altitude 10° 02:28:05 10° 352° (N) 2,469 5.2 -18.5°
Sets 02:31:56 0° 18° (NNE) 3,406 6.5 -18.0°
